Simultaneous Nadir Overpasses (SNOs) Predictions

Prediction of SNOs between LANDSAT-8 and NOAA-19 Satellite Orbit:

Table of predicted SNOs for the next 14.0 days since TLE Epoch: 4/9/2022
Index Date (LANDSAT-8) Time (LANDSAT-8) Lat,Lon (LANDSAT-8) SZA (LANDSAT-8 ) Date (NOAA-19) Time (NOAA-19) Lat,Lon (NOAA-19) SZA (NOAA-19 ) Distance(km) Time Diff (sec)
1 04/11/2022 02:41:01 -80.76, -5.61 105.90 04/11/2022 02:40:01 -80.76, -5.66 105.93 1.20 60
2 04/11/2022 03:30:27 80.77, 162.07 74.10 04/11/2022 03:30:55 80.75, 161.98 74.09 2.81 28
3 04/13/2022 09:04:13 -80.75,-101.56 106.73 04/13/2022 09:04:01 -80.76,-101.68 106.74 2.34 12
4 04/13/2022 09:53:39 80.75, 66.10 73.26 04/13/2022 09:54:46 80.65, 69.12 73.50 55.59 67
5 04/15/2022 14:37:57 80.76, -4.92 72.50 04/15/2022 14:36:55 80.76, -4.75 72.49 3.02 62
6 04/15/2022 15:27:24 -80.76, 162.75 107.51 04/15/2022 15:28:00 -80.75, 162.61 107.52 2.66 36
7 04/17/2022 21:01:08 80.76,-100.69 71.72 04/17/2022 21:00:54 80.75,-100.54 71.72 2.80 14
8 04/20/2022 02:34:52 -80.76, -4.15 109.05 04/20/2022 02:33:59 -80.77, -4.22 109.07 1.46 53
9 04/20/2022 03:24:18 80.76, 163.45 70.94 04/20/2022 03:24:52 80.75, 163.63 70.97 3.14 34



Historial Predications of SNOs between LANDSAT-8 and NOAA-19
